Weather History for KINK - August, 2013

Change the Weather History Date:

Monday, August 19, 2013

  Actual Average Record
Temperature  
Mean Temperature 82 °F -  
Max Temperature 100 °F 96 °F 108 °F (2007)
Min Temperature 66 °F 68 °F 61 °F (1940)
Cooling Degree Days 18    
Growing Degree Days 32 (Base 50)    
Moisture  
Dew Point 52 °F    
Average Humidity 39    
Maximum Humidity 73    
Minimum Humidity 14    
Precipitation  
Precipitation 0.00 in - - ()
Sea Level Pressure  
Sea Level Pressure 29.86 in    
Wind  
Wind Speed 7 mph (SE)    
Max Wind Speed 13 mph    
Max Gust Speed 22 mph    
Visibility 10 miles    
Events      
Averages and records for this station are not official NWS values.
T = Trace of Precipitation, MM = Missing Value Source: NWS Daily Summary

Daily Weather History Graph

Daily Weather History Graph

Search for Another Location

Airport or City:

Trip Planner

Search our weather history database for the weather conditions in past years. The results will help you decide how hot, cold, wet, or windy it might be!

Date:

Astronomy

Aug. 19, 2013 Rise Set
Actual Time 7:20 AM CDT 8:31 PM CDT
Civil Twilight 6:54 AM CDT 8:57 PM CDT
Nautical Twilight 6:24 AM CDT 9:27 PM CDT
Astronomical Twilight 5:53 AM CDT 9:58 PM CDT
Moon 7:24 PM CDT (8/19) 5:44 AM CDT (8/19)
Length of Visible Light 14h 02m
Length of Day
13h 11m
Waxing Gibbous, 97% of the Moon is Illuminated
Aug 19
Waxing Gibbous
Aug 20
Full
Aug 28
Last Quarter
Sep 5
New
Sep 12
First Quarter

Hourly Weather History & Observations

Time (CDT) Temp. Heat Index Dew Point Humidity Pressure Visibility Wind Dir Wind Speed Gust Speed Precip Events Conditions
12:53 AM 75.0 °F - 59.0 °F 57% 29.90 in 10.0 mi SE 6.9 mph - N/A   Clear
1:53 AM 73.0 °F - 60.1 °F 64% 29.89 in 10.0 mi SE 6.9 mph - N/A   Clear
2:53 AM 71.1 °F - 60.1 °F 68% 29.89 in 10.0 mi NE 4.6 mph - N/A   Clear
3:53 AM 70.0 °F - 61.0 °F 73% 29.87 in 10.0 mi ESE 4.6 mph - N/A   Clear
4:53 AM 73.0 °F - 59.0 °F 61% 29.86 in 10.0 mi SE 8.1 mph - N/A   Clear
5:53 AM 72.0 °F - 59.0 °F 64% 29.86 in 10.0 mi ESE 4.6 mph - N/A   Clear
6:53 AM 66.9 °F - 57.9 °F 73% 29.88 in 10.0 mi Calm Calm - N/A   Clear
7:53 AM 69.1 °F - 59.0 °F 70% 29.90 in 10.0 mi ESE 5.8 mph - N/A   Clear
8:53 AM 73.0 °F - 60.1 °F 64% 29.92 in 10.0 mi SE 5.8 mph - N/A   Clear
9:53 AM 79.0 °F - 57.9 °F 48% 29.93 in 10.0 mi SSE 9.2 mph - N/A   Clear
10:53 AM 84.0 °F 83.0 °F 55.9 °F 38% 29.92 in 10.0 mi ESE 6.9 mph - N/A   Clear
11:53 AM 90.0 °F 87.5 °F 53.1 °F 28% 29.91 in 10.0 mi SSE 5.8 mph - N/A   Clear
12:53 PM 93.9 °F - 50.0 °F 22% 29.89 in 10.0 mi SSE 6.9 mph - N/A   Clear
1:53 PM 96.1 °F - 50.0 °F 21% 29.87 in 10.0 mi SE 6.9 mph 16.1 mph N/A   Clear
2:53 PM 99.0 °F - 46.0 °F 16% 29.86 in 10.0 mi South 12.7 mph 20.7 mph N/A   Clear
3:53 PM 98.1 °F - 42.1 °F 15% 29.83 in 10.0 mi Variable 3.5 mph 18.4 mph N/A   Clear
4:53 PM 99.0 °F - 41.0 °F 14% 29.80 in 10.0 mi SSE 10.4 mph 18.4 mph N/A   Clear
5:53 PM 99.0 °F - 43.0 °F 15% 29.79 in 10.0 mi SSE 10.4 mph 21.9 mph N/A   Clear
6:53 PM 98.1 °F - 41.0 °F 14% 29.79 in 10.0 mi SSE 10.4 mph 18.4 mph N/A   Clear
7:53 PM 95.0 °F - 41.0 °F 15% 29.80 in 10.0 mi SSE 10.4 mph - N/A   Clear
8:53 PM 91.0 °F - 43.0 °F 19% 29.81 in 10.0 mi SSE 10.4 mph - N/A   Clear
9:53 PM 87.1 °F - 44.1 °F 22% 29.82 in 10.0 mi SSE 10.4 mph - N/A   Clear
10:53 PM 86.0 °F - 46.9 °F 26% 29.83 in 10.0 mi SSE 10.4 mph - N/A   Clear
11:53 PM 82.9 °F - 50.0 °F 32% 29.84 in 10.0 mi SSE 10.4 mph - N/A   Clear